GW4109 Weather Reports


Display with metric or nautical units.
time (UTC)temp
F
wind
direction
speed
MPH
gust
MPH
rain 1hr
in
rain 24hr
in
rain mn
in
humidity
%
barometer
mb
20260507000309 87 79 5.0 6.0 0.00 0.00 0.00 20 1016.2
20260506235806 87 76 3.0 4.0 0.00 0.00 0.00 20 1016.3
20260506235306 87 71 3.0 5.0 0.00 0.00 0.00 20 1016.2
20260506234753 88 91 4.0 6.0 0.00 0.00 0.00 20 1016.0
20260506234251 90 255 0.0 2.0 0.00 0.00 0.00 19 1016.1
20260506233748 88 73 2.0 3.0 0.00 0.00 0.00 20 1016.5
20260506233244 88 71 2.0 4.0 0.00 0.00 0.00 20 1016.3
20260506232741 88 97 2.0 4.0 0.00 0.00 0.00 20 1016.5
20260506232236 87 63 0.0 5.0 0.00 0.00 0.00 21 1016.5
20260506231734 87 98 3.0 7.0 0.00 0.00 0.00 20 1016.3
20260506231232 87 81 2.0 8.0 0.00 0.00 0.00 21 1016.6
20260506230729 86 109 7.0 13.0 0.00 0.00 0.00 21 1016.3
20260506230225 87 185 2.0 5.0 0.00 0.00 0.00 20 1016.6
20260506225722 88 161 2.0 6.0 0.00 0.00 0.00 20 1016.7
20260506225219 88 89 0.0 4.0 0.00 0.00 0.00 20 1016.8
20260506224715 88 215 2.0 4.0 0.00 0.00 0.00 20 1016.8
20260506224212 89 137 2.0 6.0 0.00 0.00 0.00 19 1016.7
20260506223709 88 110 3.0 8.0 0.00 0.00 0.00 20 1016.9
20260506223204 87 78 4.0 6.0 0.00 0.00 0.00 20 1017.0
20260506222701 87 4 2.0 5.0 0.00 0.00 0.00 20 1016.9
20260506222156 87 104 3.0 7.0 0.00 0.00 0.00 20 1017.2
20260506221650 86 92 6.0 9.0 0.00 0.00 0.00 20 1017.2
20260506221147 87 107 6.0 7.0 0.00 0.00 0.00 20 1017.3
20260506220644 87 88 6.0 12.0 0.00 0.00 0.00 20 1017.4
20260506220139 87 247 2.0 6.0 0.00 0.00 0.00 20 1017.4
20260506215636 88 128 2.0 5.0 0.00 0.00 0.00 20 1017.5
20260506215131 87 156 0.0 7.0 0.00 0.00 0.00 20 1017.5
20260506214628 86 95 5.0 7.0 0.00 0.00 0.00 21 1017.6
20260506214126 86 144 4.0 9.0 0.00 0.00 0.00 20 1017.7
20260506213624 86 108 9.0 9.0 0.00 0.00 0.00 20 1017.6
20260506213121 86 91 9.0 11.0 0.00 0.00 0.00 20 1017.5
20260506212618 86 98 4.0 6.0 0.00 0.00 0.00 20 1017.9
20260506212113 86 91 3.0 9.0 0.00 0.00 0.00 20 1018.0
20260506211608 86 86 3.0 4.0 0.00 0.00 0.00 21 1017.9
20260506211106 86 58 3.0 5.0 0.00 0.00 0.00 21 1018.2
20260506210602 86 110 1.0 4.0 0.00 0.00 0.00 20 1018.2
20260506210059 86 214 1.0 3.0 0.00 0.00 0.00 21 1018.2
20260506205556 86 178 3.0 5.0 0.00 0.00 0.00 20 1018.1
20260506205051 84 101 6.0 9.0 0.00 0.00 0.00 21 1018.2
20260506204549 86 96 5.0 6.0 0.00 0.00 0.00 21 1018.2
20260506204046 85 84 2.0 7.0 0.00 0.00 0.00 21 1018.4
20260506203544 85 104 4.0 8.0 0.00 0.00 0.00 21 1018.3
20260506203040 86 69 3.0 7.0 0.00 0.00 0.00 21 1018.5
20260506202538 84 163 5.0 8.0 0.00 0.00 0.00 21 1018.6
20260506202034 84 252 5.0 5.0 0.00 0.00 0.00 21 1018.5
20260506201532 84 20 2.0 4.0 0.00 0.00 0.00 22 1018.6
20260506201028 83 95 9.0 12.0 0.00 0.00 0.00 22 1018.8
20260506200524 84 73 5.0 6.0 0.00 0.00 0.00 22 1018.8
20260506200021 84 76 2.0 5.0 0.00 0.00 0.00 22 1018.8
20260506195518 84 126 4.0 9.0 0.00 0.00 0.00 22 1019.0
20260506195014 83 148 1.0 4.0 0.00 0.00 0.00 23 1019.1
20260506194512 83 113 4.0 8.0 0.00 0.00 0.00 22 1019.0
20260506194008 84 91 5.0 6.0 0.00 0.00 0.00 22 1019.2
20260506193505 82 97 3.0 12.0 0.00 0.00 0.00 23 1019.1
20260506192956 83 213 0.0 4.0 0.00 0.00 0.00 23 1019.2
20260506192454 84 128 6.0 6.0 0.00 0.00 0.00 22 1019.3
20260506191949 84 202 3.0 5.0 0.00 0.00 0.00 23 1019.2
20260506191447 82 163 1.0 6.0 0.00 0.00 0.00 23 1019.3
20260506190943 82 267 2.0 3.0 0.00 0.00 0.00 24 1019.4
20260506190440 81 313 1.0 4.0 0.00 0.00 0.00 25 1019.4
20260506185936 82 104 4.0 5.0 0.00 0.00 0.00 24 1019.5
20260506185434 82 173 4.0 5.0 0.00 0.00 0.00 25 1019.5
20260506184931 81 85 5.0 5.0 0.00 0.00 0.00 26 1019.5
20260506184427 82 302 0.0 3.0 0.00 0.00 0.00 25 1019.6
20260506183925 82 313 3.0 5.0 0.00 0.00 0.00 26 1019.7
20260506183420 80 112 3.0 9.0 0.00 0.00 0.00 26 1019.7
20260506182912 80 63 3.0 3.0 0.00 0.00 0.00 27 1019.8
20260506182409 79 141 2.0 4.0 0.00 0.00 0.00 28 1019.9
20260506181907 79 108 3.0 8.0 0.00 0.00 0.00 28 1019.7
20260506181404 81 96 1.0 5.0 0.00 0.00 0.00 27 1019.9
20260506180901 80 134 2.0 4.0 0.00 0.00 0.00 28 1019.8
20260506180357 77 102 4.0 9.0 0.00 0.00 0.00 29 1019.9
20260506175854 79 81 2.0 4.0 0.00 0.00 0.00 28 1019.8
20260506175350 80 82 2.0 4.0 0.00 0.00 0.00 28 1019.9
20260506174848 78 166 1.0 5.0 0.00 0.00 0.00 29 1020.0
20260506174345 77 35 1.0 5.0 0.00 0.00 0.00 30 1019.9
20260506173843 77 79 4.0 8.0 0.00 0.00 0.00 30 1019.9
20260506173339 78 58 0.0 3.0 0.00 0.00 0.00 29 1019.9
20260506172836 77 78 2.0 9.0 0.00 0.00 0.00 30 1020.2
20260506172333 76 107 3.0 6.0 0.00 0.00 0.00 30 1019.9
20260506171830 76 124 2.0 3.0 0.00 0.00 0.00 30 1020.0
20260506171327 76 112 3.0 8.0 0.00 0.00 0.00 30 1020.1
20260506170825 75 62 1.0 5.0 0.00 0.00 0.00 31 1020.0
20260506170320 76 108 3.0 5.0 0.00 0.00 0.00 30 1020.0
20260506165819 75 350 1.0 4.0 0.00 0.00 0.00 31 1019.8
20260506165316 75 95 4.0 4.0 0.00 0.00 0.00 31 1020.1
20260506164813 77 69 3.0 4.0 0.00 0.00 0.00 30 1020.0
20260506164310 76 162 2.0 4.0 0.00 0.00 0.00 31 1019.9
20260506163807 74 249 3.0 3.0 0.00 0.00 0.00 32 1019.9
20260506163301 74 145 1.0 4.0 0.00 0.00 0.00 33 1019.9
20260506162757 73 20 3.0 4.0 0.00 0.00 0.00 34 1019.8
20260506162256 73 258 0.0 3.0 0.00 0.00 0.00 34 1019.8
20260506161752 73 61 0.0 2.0 0.00 0.00 0.00 35 1019.8
20260506161250 73 89 0.0 3.0 0.00 0.00 0.00 35 1019.8
20260506160747 71 151 3.0 3.0 0.00 0.00 0.00 36 1019.7
20260506160244 72 117 4.0 4.0 0.00 0.00 0.00 35 1019.8
20260506155743 72 89 0.0 2.0 0.00 0.00 0.00 35 1019.8
20260506155239 73 109 2.0 3.0 0.00 0.00 0.00 35 1019.9
20260506153347 69 191 1.0 3.0 0.00 0.00 0.00 39 1019.7
20260506152843 68 322 0.0 3.0 0.00 0.00 0.00 40 1019.7
20260506152340 70 102 0.0 3.0 0.00 0.00 0.00 38 1019.6
20260506151839 71 269 0.0 2.0 0.00 0.00 0.00 38 1019.7
20260506151336 71 58 2.0 2.0 0.00 0.00 0.00 37 1019.7
20260506150833 69 25 0.0 1.0 0.00 0.00 0.00 39 1019.6
20260506150330 68 89 0.0 1.0 0.00 0.00 0.00 40 1019.8
20260506145826 68 86 1.0 3.0 0.00 0.00 0.00 40 1019.9
20260506145322 68 95 1.0 3.0 0.00 0.00 0.00 41 1019.8
20260506144821 67 81 2.0 3.0 0.00 0.00 0.00 41 1019.7
20260506144317 65 91 0.0 2.0 0.00 0.00 0.00 45 1019.8
20260506143816 66 22 0.0 2.0 0.00 0.00 0.00 43 1019.7
20260506143312 65 62 1.0 2.0 0.00 0.00 0.00 45 1019.7
20260506142810 64 27 2.0 2.0 0.00 0.00 0.00 46 1019.7
20260506142307 63 13 1.0 2.0 0.00 0.00 0.00 48 1019.6
20260506141806 64 21 1.0 2.0 0.00 0.00 0.00 46 1019.5
20260506141304 64 39 0.0 2.0 0.00 0.00 0.00 46 1019.7
20260506140801 64 60 1.0 2.0 0.00 0.00 0.00 46 1019.4
20260506140257 63 96 2.0 2.0 0.00 0.00 0.00 48 1019.4
20260506135755 59 34 0.0 2.0 0.00 0.00 0.00 52 1019.2
20260506135251 59 28 2.0 4.0 0.00 0.00 0.00 53 1019.3
20260506134748 58 20 1.0 2.0 0.00 0.00 0.00 54 1019.3
20260506134244 56 114 0.0 2.0 0.00 0.00 0.00 56 1019.3
20260506133742 56 151 1.0 2.0 0.00 0.00 0.00 57 1019.3
20260506133238 54 239 2.0 2.0 0.00 0.00 0.00 58 1019.1
20260506132735 53 283 0.0 2.0 0.00 0.00 0.00 60 1019.1
20260506132233 52 242 1.0 2.0 0.00 0.00 0.00 62 1019.1
20260506131731 52 181 1.0 2.0 0.00 0.00 0.00 62 1018.9
20260506131226 51 272 1.0 2.0 0.00 0.00 0.00 63 1018.9
20260506130723 51 165 0.0 2.0 0.00 0.00 0.00 62 1018.8
20260506130220 52 194 2.0 2.0 0.00 0.00 0.00 63 1018.8
20260506125718 51 151 0.0 2.0 0.00 0.00 0.00 62 1018.7
20260506125216 52 148 0.0 2.0 0.00 0.00 0.00 62 1018.8
20260506124714 51 61 1.0 2.0 0.00 0.00 0.00 63 1018.6
20260506124211 52 91 2.0 2.0 0.00 0.00 0.00 62 1018.3
20260506123708 53 256 0.0 2.0 0.00 0.00 0.00 61 1018.5
20260506123207 53 247 1.0 2.0 0.00 0.00 0.00 61 1018.5
20260506122703 53 262 1.0 2.0 0.00 0.00 0.00 60 1018.3
20260506122201 54 192 1.0 3.0 0.00 0.00 0.00 59 1018.6
20260506121659 54 215 1.0 2.0 0.00 0.00 0.00 59 1018.3
20260506121155 54 239 2.0 4.0 0.00 0.00 0.00 59 1018.4
20260506120653 52 178 0.0 2.0 0.00 0.00 0.00 62 1018.3
20260506120150 51 195 1.0 2.0 0.00 0.00 0.00 62 1018.3
20260506115648 52 184 2.0 2.0 0.00 0.00 0.00 62 1018.1
20260506115146 51 162 1.0 2.0 0.00 0.00 0.00 64 1018.3
20260506114643 52 89 0.0 2.0 0.00 0.00 0.00 63 1018.0
20260506114141 53 60 0.0 1.0 0.00 0.00 0.00 62 1018.1
20260506113639 52 22 1.0 2.0 0.00 0.00 0.00 63 1018.1
20260506113136 53 116 1.0 2.0 0.00 0.00 0.00 61 1018.2
20260506112632 54 320 0.0 2.0 0.00 0.00 0.00 60 1018.1
20260506112130 53 191 0.0 2.0 0.00 0.00 0.00 62 1018.0
20260506111627 53 240 0.0 2.0 0.00 0.00 0.00 62 1018.2
20260506111125 53 198 2.0 3.0 0.00 0.00 0.00 62 1018.1
20260506110622 53 211 2.0 2.0 0.00 0.00 0.00 62 1018.2
20260506110120 53 260 1.0 2.0 0.00 0.00 0.00 62 1018.0
20260506105616 52 231 2.0 2.0 0.00 0.00 0.00 62 1017.9
20260506105113 52 255 1.0 2.0 0.00 0.00 0.00 62 1018.2
20260506104611 52 208 1.0 2.0 0.00 0.00 0.00 62 1018.1
20260506104108 54 236 1.0 2.0 0.00 0.00 0.00 61 1018.1
20260506103606 53 172 0.0 2.0 0.00 0.00 0.00 62 1018.0
20260506103102 53 265 1.0 2.0 0.00 0.00 0.00 62 1018.0
20260506102601 52 228 0.0 3.0 0.00 0.00 0.00 62 1017.9
20260506102058 52 250 1.0 2.0 0.00 0.00 0.00 61 1017.9
20260506101554 53 171 0.0 2.0 0.00 0.00 0.00 60 1018.0
20260506101051 53 338 0.0 3.0 0.00 0.00 0.00 60 1018.0
20260506100550 53 86 1.0 2.0 0.00 0.00 0.00 59 1017.8
20260506100047 54 174 0.0 2.0 0.00 0.00 0.00 58 1017.9
20260506095546 53 240 2.0 3.0 0.00 0.00 0.00 59 1018.0
20260506095042 53 296 0.0 3.0 0.00 0.00 0.00 60 1017.9
20260506094540 53 172 1.0 2.0 0.00 0.00 0.00 61 1018.0
20260506094038 53 277 2.0 3.0 0.00 0.00 0.00 61 1017.9
20260506093536 54 189 1.0 2.0 0.00 0.00 0.00 61 1018.0
20260506093033 54 176 1.0 1.0 0.00 0.00 0.00 60 1018.1
20260506092530 54 324 0.0 2.0 0.00 0.00 0.00 60 1018.0
20260506092027 54 320 0.0 2.0 0.00 0.00 0.00 59 1018.0
20260506091526 55 47 1.0 2.0 0.00 0.00 0.00 58 1018.0
20260506091022 55 72 2.0 2.0 0.00 0.00 0.00 57 1017.9
20260506090520 56 201 0.0 4.0 0.00 0.00 0.00 56 1017.8
20260506090016 55 112 1.0 2.0 0.00 0.00 0.00 56 1017.9
20260506085513 56 231 2.0 4.0 0.00 0.00 0.00 56 1017.9
20260506085010 56 76 0.0 2.0 0.00 0.00 0.00 58 1017.9
20260506084507 56 89 0.0 2.0 0.00 0.00 0.00 56 1018.2
20260506084003 56 206 2.0 2.0 0.00 0.00 0.00 57 1018.2
20260506083500 56 254 2.0 3.0 0.00 0.00 0.00 56 1018.1
20260506082957 57 216 0.0 4.0 0.00 0.00 0.00 55 1018.1
20260506082454 56 118 1.0 3.0 0.00 0.00 0.00 57 1018.3
20260506081950 56 1 0.0 2.0 0.00 0.00 0.00 57 1018.3
20260506081448 57 246 2.0 3.0 0.00 0.00 0.00 56 1018.3
20260506080945 57 353 2.0 6.0 0.00 0.00 0.00 56 1018.3
20260506080442 57 106 2.0 3.0 0.00 0.00 0.00 55 1018.3
20260506073426 59 178 2.0 2.0 0.00 0.00 0.00 53 1018.5
20260506072923 59 269 0.0 2.0 0.00 0.00 0.00 52 1018.4
20260506072420 59 116 0.0 2.0 0.00 0.00 0.00 52 1018.5
20260506071917 60 235 1.0 3.0 0.00 0.00 0.00 51 1018.5
20260506071416 60 294 2.0 2.0 0.00 0.00 0.00 51 1018.7
20260506070912 60 202 2.0 3.0 0.00 0.00 0.00 52 1018.4
20260506070409 59 162 0.0 2.0 0.00 0.00 0.00 52 1018.7
20260506062347 63 330 3.0 11.0 0.00 0.00 0.00 48 1018.0
20260506061843 63 269 4.0 6.0 0.00 0.00 0.00 48 1017.9
20260506061339 63 344 2.0 8.0 0.00 0.00 0.00 48 1018.1
20260506060838 63 257 5.0 6.0 0.00 0.00 0.00 47 1018.0
20260506060335 63 249 5.0 7.0 0.00 0.00 0.00 47 1018.0
20260506051307 62 286 3.0 10.0 0.00 0.00 0.00 47 1018.1
20260506050805 64 247 7.0 13.0 0.00 0.00 0.00 45 1017.7
20260506050302 63 240 7.0 7.0 0.00 0.00 0.00 46 1017.9
20260506044752 63 112 0.0 3.0 0.00 0.00 0.00 45 1017.6
20260506044250 64 133 1.0 3.0 0.00 0.00 0.00 45 1017.7
20260506043747 63 242 2.0 6.0 0.00 0.00 0.00 45 1017.4
20260506043244 64 128 0.0 4.0 0.00 0.00 0.00 45 1017.2
20260506042743 64 260 2.0 6.0 0.00 0.00 0.00 44 1017.4
20260506042242 65 252 3.0 7.0 0.00 0.00 0.00 43 1017.3
20260506041740 64 288 2.0 9.0 0.00 0.00 0.00 44 1017.2
20260506041236 64 253 3.0 4.0 0.00 0.00 0.00 44 1017.2
20260506040734 64 266 7.0 9.0 0.00 0.00 0.00 44 1017.0
20260506040231 65 268 4.0 7.0 0.00 0.00 0.00 43 1016.9
20260506035727 64 235 7.0 11.0 0.00 0.00 0.00 44 1016.9
20260506035224 65 248 2.0 8.0 0.00 0.00 0.00 43 1016.7
20260506034721 65 245 6.0 8.0 0.00 0.00 0.00 43 1016.7
20260506034218 65 231 3.0 8.0 0.00 0.00 0.00 43 1016.7
20260506033716 65 273 5.0 10.0 0.00 0.00 0.00 43 1016.3
20260506033212 65 256 5.0 11.0 0.00 0.00 0.00 43 1016.3
20260506032709 65 235 4.0 8.0 0.00 0.00 0.00 43 1016.1
20260506032206 65 232 5.0 14.0 0.00 0.00 0.00 43 1016.5
20260506031703 65 279 6.0 16.0 0.00 0.00 0.00 43 1016.2
20260506031200 64 244 3.0 9.0 0.00 0.00 0.00 44 1016.2
20260506030659 65 243 11.0 16.0 0.00 0.00 0.00 43 1016.0
20260506030155 64 248 11.0 16.0 0.00 0.00 0.00 44 1015.8
20260506025652 65 236 4.0 14.0 0.00 0.00 0.00 44 1015.8
20260506025148 65 275 4.0 19.0 0.00 0.00 0.00 43 1015.6
20260506024645 65 229 9.0 12.0 0.00 0.00 0.00 44 1015.9
20260506024141 65 235 17.0 19.0 0.00 0.00 0.00 43 1015.5
20260506023638 65 275 5.0 15.0 0.00 0.00 0.00 43 1015.7
20260506023135 65 292 7.0 16.0 0.00 0.00 0.00 42 1015.4
20260506022632 65 246 11.0 18.0 0.00 0.00 0.00 42 1015.4
20260506022130 66 261 9.0 13.0 0.00 0.00 0.00 42 1015.4
20260506021628 66 257 8.0 17.0 0.00 0.00 0.00 40 1015.2
20260506021125 66 317 5.0 14.0 0.00 0.00 0.00 41 1015.1
20260506020622 66 313 6.0 18.0 0.00 0.00 0.00 40 1015.1
20260506020119 66 319 11.0 19.0 0.00 0.00 0.00 40 1014.9
20260506015617 67 315 9.0 21.0 0.00 0.00 0.00 39 1014.9
20260506015113 67 307 4.0 17.0 0.00 0.00 0.00 39 1014.8
20260506014611 67 295 9.0 24.0 0.00 0.00 0.00 38 1014.6
20260506014106 67 295 8.0 19.0 0.00 0.00 0.00 38 1014.7
20260506013605 68 305 9.0 28.0 0.00 0.00 0.00 37 1014.5
20260506013101 67 263 9.0 13.0 0.00 0.00 0.00 37 1014.7
20260506012557 68 297 10.0 16.0 0.00 0.00 0.00 36 1014.6
20260506012054 68 315 11.0 16.0 0.00 0.00 0.00 36 1014.7
20260506011552 70 245 13.0 19.0 0.00 0.00 0.00 34 1014.5
20260506011048 70 286 6.0 12.0 0.00 0.00 0.00 33 1014.7
20260506010547 70 335 8.0 19.0 0.00 0.00 0.00 33 1014.5
20260506010044 70 347 4.0 23.0 0.00 0.00 0.00 33 1014.7
20260506005541 71 246 8.0 9.0 0.00 0.00 0.00 32 1014.7
20260506005037 72 274 5.0 9.0 0.00 0.00 0.00 32 1014.6
20260506004534 72 329 5.0 6.0 0.00 0.00 0.00 32 1014.6
20260506004031 72 314 0.0 3.0 0.00 0.00 0.00 32 1014.5
20260506003527 70 233 5.0 13.0 0.00 0.00 0.00 34 1014.7
20260506003023 70 225 6.0 20.0 0.00 0.00 0.00 34 1014.8
20260506002520 70 234 26.0 31.0 0.00 0.00 0.00 34 1014.8
20260506002015 70 231 19.0 23.0 0.00 0.00 0.00 33 1014.8
20260506001512 69 235 6.0 27.0 0.00 0.00 0.00 34 1015.1
20260506001009 70 242 7.0 19.0 0.00 0.00 0.00 35 1014.9